Location: Catacaguana
(10.4120°N, 66.7591°W)
Time: 06:19:14
(UTC+00:00)

H-2A R/B - Pass Details

Date: 27 May 2022
Orbit: 491 x 536 km, 97.3° (Epoch: 01 April)

Event Time Altitude Azimuth Distance (km) Brightness Sun altitude
Rises 08:35:16 0° 22° (NNE) 2,564 7.0 -20.7°
Reaches altitude 10° 08:37:26 10° 31° (NNE) 1,680 6.1 -20.2°
Maximum altitude 08:40:49 38° 100° (E) 759 3.9 -19.5°
Enters shadow 08:44:02 11° 169° (SSE) 1,616 5.0 -18.8°
